Time,TemperatureF,DewpointF,PressureIn,WindDirection,WindDirectionDegrees,WindSpeedMPH,WindSpeedGustMPH,Humidity,HourlyPrecipIn,Conditions,Clouds,dailyrainin,SoftwareType,DateUTC
2013-03-17 00:07:00,33.8,19.0,29.87,NNE,25,4.0,4.0,55,0.00,,,0.00,weatherlink.com 1.10,2013-03-17 04:07:00,
2013-03-17 00:22:00,33.0,17.0,29.87,North,353,1.0,6.0,52,0.00,,,0.00,weatherlink.com 1.10,2013-03-17 04:22:00,
2013-03-17 00:37:00,32.4,16.0,29.88,NE,44,1.0,3.0,50,0.00,,,0.00,weatherlink.com 1.10,2013-03-17 04:37:00,
2013-03-17 00:52:00,31.9,15.0,29.88,ENE,60,1.0,4.0,50,0.00,,,0.00,weatherlink.com 1.10,2013-03-17 04:52:00,
2013-03-17 01:24:00,30.9,14.0,29.89,NE,54,1.0,1.0,49,0.00,,,0.00,weatherlink.com 1.10,2013-03-17 05:24:00,
2013-03-17 01:38:00,30.6,13.0,29.89,NE,38,1.0,2.0,49,0.00,,,0.00,weatherlink.com 1.10,2013-03-17 05:38:00,
2013-03-17 01:53:00,30.2,13.0,29.89,NE,41,0.0,1.0,50,0.00,,,0.00,weatherlink.com 1.10,2013-03-17 05:53:00,
2013-03-17 02:08:00,29.8,13.0,29.89,NE,41,0.0,1.0,50,0.00,,,0.00,weatherlink.com 1.10,2013-03-17 06:08:00,
2013-03-17 02:23:00,28.9,14.0,29.90,NE,41,0.0,0.0,54,0.00,,,0.00,weatherlink.com 1.10,2013-03-17 06:23:00,
2013-03-17 02:38:00,28.4,14.0,29.89,NE,45,0.0,1.0,54,0.00,,,0.00,weatherlink.com 1.10,2013-03-17 06:38:00,
2013-03-17 02:53:00,27.6,14.0,29.89,ENE,69,0.0,1.0,57,0.00,,,0.00,weatherlink.com 1.10,2013-03-17 06:53:00,
2013-03-17 03:08:00,27.2,15.0,29.89,ENE,69,0.0,1.0,60,0.00,,,0.00,weatherlink.com 1.10,2013-03-17 07:08:00,
2013-03-17 03:23:00,26.9,15.0,29.89,ENE,69,0.0,0.0,61,0.00,,,0.00,weatherlink.com 1.10,2013-03-17 07:23:00,
2013-03-17 03:38:00,26.7,15.0,29.89,ENE,70,0.0,1.0,62,0.00,,,0.00,weatherlink.com 1.10,2013-03-17 07:38:00,
2013-03-17 03:53:00,25.9,15.0,29.89,ENE,70,0.0,0.0,63,0.00,,,0.00,weatherlink.com 1.10,2013-03-17 07:53:00,
2013-03-17 04:08:00,25.0,15.0,29.91,ENE,70,0.0,0.0,66,0.00,,,0.00,weatherlink.com 1.10,2013-03-17 08:08:00,
2013-03-17 04:23:00,26.2,15.0,29.91,ENE,68,0.0,1.0,62,0.00,,,0.00,weatherlink.com 1.10,2013-03-17 08:23:00,
2013-03-17 04:38:00,26.1,15.0,29.91,ENE,68,0.0,0.0,64,0.00,,,0.00,weatherlink.com 1.10,2013-03-17 08:38:00,
2013-03-17 04:53:00,25.8,15.0,29.92,ENE,68,0.0,0.0,65,0.00,,,0.00,weatherlink.com 1.10,2013-03-17 08:53:00,
2013-03-17 05:08:00,25.5,16.0,29.93,ENE,68,0.0,0.0,66,0.00,,,0.00,weatherlink.com 1.10,2013-03-17 09:08:00,
2013-03-17 05:23:00,25.7,16.0,29.93,ENE,68,0.0,0.0,66,0.00,,,0.00,weatherlink.com 1.10,2013-03-17 09:23:00,
2013-03-17 05:38:00,24.8,15.0,29.93,ENE,68,0.0,1.0,67,0.00,,,0.00,weatherlink.com 1.10,2013-03-17 09:38:00,
2013-03-17 05:53:00,25.7,15.0,29.93,ENE,68,0.0,1.0,64,0.00,,,0.00,weatherlink.com 1.10,2013-03-17 09:53:00,
2013-03-17 06:08:00,26.0,14.0,29.94,NNE,13,0.0,1.0,62,0.00,,,0.00,weatherlink.com 1.10,2013-03-17 10:08:00,
2013-03-17 06:23:00,25.4,15.0,29.94,NNE,13,0.0,1.0,64,0.00,,,0.00,weatherlink.com 1.10,2013-03-17 10:23:00,
2013-03-17 06:38:00,24.8,15.0,29.94,East,79,0.0,1.0,66,0.00,,,0.00,weatherlink.com 1.10,2013-03-17 10:38:00,
2013-03-17 06:53:00,24.2,15.0,29.95,East,79,0.0,0.0,68,0.00,,,0.00,weatherlink.com 1.10,2013-03-17 10:53:00,
2013-03-17 07:08:00,25.4,15.0,29.96,West,274,1.0,3.0,64,0.00,,,0.00,weatherlink.com 1.10,2013-03-17 11:08:00,
2013-03-17 07:24:00,26.0,15.0,29.97,West,260,1.0,4.0,63,0.00,,,0.00,weatherlink.com 1.10,2013-03-17 11:24:00,
2013-03-17 07:38:00,26.3,15.0,29.98,NW,314,2.0,2.0,62,0.00,,,0.00,weatherlink.com 1.10,2013-03-17 11:38:00,
2013-03-17 07:53:00,27.0,15.0,29.99,NW,323,0.0,4.0,60,0.00,,,0.00,weatherlink.com 1.10,2013-03-17 11:53:00,
2013-03-17 08:09:00,27.5,14.0,30.00,NNW,329,2.0,7.0,58,0.00,,,0.00,weatherlink.com 1.10,2013-03-17 12:09:00,
2013-03-17 08:24:00,28.3,14.0,30.01,North,11,1.0,7.0,56,0.00,,,0.00,weatherlink.com 1.10,2013-03-17 12:24:00,
2013-03-17 08:39:00,29.5,15.0,30.03,North,8,4.0,5.0,54,0.00,,,0.00,weatherlink.com 1.10,2013-03-17 12:39:00,
2013-03-17 08:54:00,30.0,15.0,30.02,NNW,342,3.0,9.0,55,0.00,,,0.00,weatherlink.com 1.10,2013-03-17 12:54:00,
2013-03-17 09:09:00,30.2,16.0,30.02,WNW,283,6.0,12.0,56,0.00,,,0.00,weatherlink.com 1.10,2013-03-17 13:09:00,
2013-03-17 09:24:00,31.1,16.0,30.02,NNW,335,3.0,7.0,54,0.00,,,0.00,weatherlink.com 1.10,2013-03-17 13:24:00,
2013-03-17 09:39:00,31.3,14.0,30.03,SW,218,5.0,11.0,49,0.00,,,0.00,weatherlink.com 1.10,2013-03-17 13:39:00,
2013-03-17 09:54:00,31.7,11.0,30.03,WNW,291,4.0,15.0,43,0.00,,,0.00,weatherlink.com 1.10,2013-03-17 13:54:00,
2013-03-17 10:09:00,32.1,11.0,30.02,WSW,257,5.0,11.0,42,0.00,,,0.00,weatherlink.com 1.10,2013-03-17 14:09:00,
2013-03-17 10:24:00,32.7,11.0,30.02,East,98,3.0,14.0,40,0.00,,,0.00,weatherlink.com 1.10,2013-03-17 14:24:00,
2013-03-17 10:39:00,33.3,11.0,30.02,SW,222,4.0,10.0,40,0.00,,,0.00,weatherlink.com 1.10,2013-03-17 14:39:00,
2013-03-17 10:54:00,34.3,12.0,30.02,WNW,285,6.0,10.0,39,0.00,,,0.00,weatherlink.com 1.10,2013-03-17 14:54:00,
2013-03-17 11:09:00,34.7,11.0,30.02,WSW,257,6.0,13.0,37,0.00,,,0.00,weatherlink.com 1.10,2013-03-17 15:09:00,
2013-03-17 11:24:00,34.6,11.0,30.03,West,280,2.0,16.0,37,0.00,,,0.00,weatherlink.com 1.10,2013-03-17 15:24:00,
2013-03-17 11:39:00,34.8,11.0,30.03,East,100,3.0,14.0,37,0.00,,,0.00,weatherlink.com 1.10,2013-03-17 15:39:00,
2013-03-17 11:54:00,36.0,11.0,30.03,WSW,254,5.0,13.0,36,0.00,,,0.00,weatherlink.com 1.10,2013-03-17 15:54:00,
2013-03-17 12:09:00,36.6,11.0,30.03,WSW,258,6.0,11.0,35,0.00,,,0.00,weatherlink.com 1.10,2013-03-17 16:09:00,
2013-03-17 12:24:00,37.2,12.0,30.03,South,169,3.0,13.0,35,0.00,,,0.00,weatherlink.com 1.10,2013-03-17 16:24:00,
2013-03-17 12:39:00,37.4,10.0,30.03,West,263,4.0,12.0,32,0.00,,,0.00,weatherlink.com 1.10,2013-03-17 16:39:00,
2013-03-17 12:54:00,37.9,10.0,30.03,NNW,338,10.0,10.0,31,0.00,,,0.00,weatherlink.com 1.10,2013-03-17 16:54:00,
2013-03-17 13:09:00,37.9,9.0,30.03,West,276,4.0,11.0,30,0.00,,,0.00,weatherlink.com 1.10,2013-03-17 17:09:00,
2013-03-17 13:24:00,37.7,9.0,30.02,NW,326,8.0,14.0,30,0.00,,,0.00,weatherlink.com 1.10,2013-03-17 17:24:00,
2013-03-17 13:39:00,37.9,8.0,30.02,WSW,254,7.0,11.0,29,0.00,,,0.00,weatherlink.com 1.10,2013-03-17 17:39:00,
2013-03-17 13:54:00,38.6,8.0,30.02,NW,321,5.0,11.0,28,0.00,,,0.00,weatherlink.com 1.10,2013-03-17 17:54:00,
2013-03-17 14:09:00,38.1,6.0,30.02,NW,305,4.0,13.0,26,0.00,,,0.00,weatherlink.com 1.10,2013-03-17 18:09:00,
2013-03-17 14:24:00,38.1,5.0,30.02,NW,310,2.0,12.0,25,0.00,,,0.00,weatherlink.com 1.10,2013-03-17 18:24:00,
2013-03-17 14:39:00,38.3,4.0,30.03,WNW,284,11.0,15.0,24,0.00,,,0.00,weatherlink.com 1.10,2013-03-17 18:39:00,
2013-03-17 14:54:00,37.5,5.0,30.04,NNE,19,5.0,13.0,26,0.00,,,0.00,weatherlink.com 1.10,2013-03-17 18:54:00,
2013-03-17 15:09:00,38.3,5.0,30.04,NNW,335,8.0,13.0,25,0.00,,,0.00,weatherlink.com 1.10,2013-03-17 19:09:00,
2013-03-17 15:24:00,37.6,5.0,30.04,North,4,5.0,11.0,26,0.00,,,0.00,weatherlink.com 1.10,2013-03-17 19:24:00,
2013-03-17 15:39:00,38.4,4.0,30.05,NE,44,3.0,13.0,24,0.00,,,0.00,weatherlink.com 1.10,2013-03-17 19:39:00,
2013-03-17 15:55:00,37.6,5.0,30.06,West,271,5.0,13.0,25,0.00,,,0.00,weatherlink.com 1.10,2013-03-17 19:55:00,
2013-03-17 16:09:00,37.3,4.0,30.06,West,276,9.0,16.0,25,0.00,,,0.00,weatherlink.com 1.10,2013-03-17 20:09:00,
2013-03-17 16:24:00,37.7,5.0,30.07,NNW,332,4.0,11.0,25,0.00,,,0.00,weatherlink.com 1.10,2013-03-17 20:24:00,
2013-03-17 16:39:00,37.3,5.0,30.07,North,359,4.0,12.0,26,0.00,,,0.00,weatherlink.com 1.10,2013-03-17 20:39:00,
2013-03-17 16:54:00,37.6,6.0,30.08,NNW,338,4.0,8.0,27,0.00,,,0.00,weatherlink.com 1.10,2013-03-17 20:54:00,
2013-03-17 17:09:00,37.1,7.0,30.08,East,83,4.0,11.0,28,0.00,,,0.00,weatherlink.com 1.10,2013-03-17 21:09:00,
2013-03-17 17:24:00,36.5,7.0,30.09,NNW,335,3.0,12.0,29,0.00,,,0.00,weatherlink.com 1.10,2013-03-17 21:24:00,
2013-03-17 17:39:00,36.4,6.0,30.10,West,277,3.0,8.0,28,0.00,,,0.00,weatherlink.com 1.10,2013-03-17 21:39:00,
2013-03-17 17:54:00,36.2,7.0,30.11,NNW,340,4.0,8.0,30,0.00,,,0.00,weatherlink.com 1.10,2013-03-17 21:54:00,
2013-03-17 18:10:00,35.6,7.0,30.11,NW,316,3.0,11.0,30,0.00,,,0.00,weatherlink.com 1.10,2013-03-17 22:10:00,
2013-03-17 18:25:00,34.9,8.0,30.12,SE,134,2.0,6.0,32,0.00,,,0.00,weatherlink.com 1.10,2013-03-17 22:25:00,
2013-03-17 18:40:00,34.1,8.0,30.13,East,80,0.0,4.0,33,0.00,,,0.00,weatherlink.com 1.10,2013-03-17 22:40:00,
2013-03-17 18:55:00,33.6,7.0,30.14,NNW,344,2.0,3.0,33,0.00,,,0.00,weatherlink.com 1.10,2013-03-17 22:55:00,
2013-03-17 19:10:00,33.1,7.0,30.16,NE,49,3.0,4.0,34,0.00,,,0.00,weatherlink.com 1.10,2013-03-17 23:10:00,
2013-03-17 19:25:00,32.7,8.0,30.17,NNW,344,0.0,2.0,35,0.00,,,0.00,weatherlink.com 1.10,2013-03-17 23:25:00,
2013-03-17 19:40:00,32.4,7.0,30.18,NW,314,1.0,3.0,35,0.00,,,0.00,weatherlink.com 1.10,2013-03-17 23:40:00,
2013-03-17 19:55:00,32.0,8.0,30.19,NNE,30,0.0,2.0,36,0.00,,,0.00,weatherlink.com 1.10,2013-03-17 23:55:00,
2013-03-17 20:10:00,31.5,8.0,30.20,NW,315,0.0,2.0,37,0.00,,,0.00,weatherlink.com 1.10,2013-03-18 00:10:00,
2013-03-17 20:25:00,31.4,8.0,30.21,NNE,29,2.0,3.0,37,0.00,,,0.00,weatherlink.com 1.10,2013-03-18 00:25:00,
2013-03-17 20:40:00,31.2,8.0,30.22,NNE,16,0.0,3.0,37,0.00,,,0.00,weatherlink.com 1.10,2013-03-18 00:40:00,
2013-03-17 20:55:00,31.1,7.0,30.22,NNW,328,2.0,5.0,36,0.00,,,0.00,weatherlink.com 1.10,2013-03-18 00:55:00,
2013-03-17 21:10:00,30.9,6.0,30.23,NNW,338,4.0,6.0,35,0.00,,,0.00,weatherlink.com 1.10,2013-03-18 01:10:00,
2013-03-17 21:25:00,30.8,6.0,30.24,North,11,2.0,5.0,35,0.00,,,0.00,weatherlink.com 1.10,2013-03-18 01:25:00,
2013-03-17 21:40:00,30.5,6.0,30.25,NNW,340,1.0,4.0,35,0.00,,,0.00,weatherlink.com 1.10,2013-03-18 01:40:00,
2013-03-17 21:55:00,30.3,6.0,30.26,NE,36,1.0,4.0,35,0.00,,,0.00,weatherlink.com 1.10,2013-03-18 01:55:00,
2013-03-17 22:10:00,30.1,5.0,30.27,NE,47,3.0,6.0,35,0.00,,,0.00,weatherlink.com 1.10,2013-03-18 02:10:00,
2013-03-17 22:25:00,29.7,5.0,30.27,North,349,2.0,5.0,35,0.00,,,0.00,weatherlink.com 1.10,2013-03-18 02:25:00,
2013-03-17 22:40:00,29.4,7.0,30.29,NNW,332,3.0,7.0,38,0.00,,,0.00,weatherlink.com 1.10,2013-03-18 02:40:00,
2013-03-17 22:55:00,29.0,7.0,30.29,NNE,19,2.0,6.0,39,0.00,,,0.00,weatherlink.com 1.10,2013-03-18 02:55:00,
2013-03-17 23:10:00,28.6,8.0,30.30,NE,41,1.0,4.0,41,0.00,,,0.00,weatherlink.com 1.10,2013-03-18 03:10:00,
2013-03-17 23:25:00,28.0,7.0,30.31,ENE,72,2.0,3.0,41,0.00,,,0.00,weatherlink.com 1.10,2013-03-18 03:25:00,
2013-03-17 23:40:00,27.6,7.0,30.31,NE,56,2.0,5.0,41,0.00,,,0.00,weatherlink.com 1.10,2013-03-18 03:40:00,
2013-03-17 23:55:00,27.3,5.0,30.32,NNW,328,2.0,7.0,39,0.00,,,0.00,weatherlink.com 1.10,2013-03-18 03:55:00,